Regional Weather Roundup
Issued by NWS Glasgow, MT

Home | Current Version | Previous Version | Text Only | Print | Product List | Glossary On
Versions: 1 2 3 4 5 6 7 8 9 10 11 12 13 14 15 16 17 18 19 20 21 22 23 24 25 26 27
000
ASUS45 KGGW 211915
RWRGGW
HOURLY REGIONAL WEATHER ROUNDUP FOR NORTHEAST MONTANA
NATIONAL WEATHER SERVICE GLASGOW MONTANA
1200 PM MST WED FEB 21 2018

NOTE: "FAIR" INDICATES FEW OR NO CLOUDS BELOW 12,000 FEET WITH NO
SIGNIFICANT WEATHER AND/OR OBSTRUCTIONS TO VISISBILITY.

NORTHEAST MONTANA


CITY           SKY/WX    TMP DP  RH WIND       PRES   REMARKS
GLASGOW        FAIR      -1  -9  68 SE12      30.22F WCI -18
PLENTYWOOD       N/A      2  -5  72 S3G15       N/A
WOLF POINT     FAIR      -2 -11  65 E6        30.30F
JORDAN           N/A     -1  -9  68 E7        30.18F
WINNETT          N/A      0 -11  59 E2          N/A
SIDNEY         FAIR       7  -6  55 SW6       30.34F
GLENDIVE       FAIR       4  -8  57 S7        30.28F
MALTA            N/A     -3 -14  59 E3          N/A

FORT PECK REPORTS


CITY           SKY/WX    TMP DP  RH WIND       PRES   REMARKS
FORT PECK        N/A      6  -4  63 SE6G15      N/A
THE PINES        N/A      9  -8  46 SE3         N/A

SOUTHEAST MONTANA


CITY           SKY/WX    TMP DP  RH WIND       PRES   REMARKS
BILLINGS       FAIR       9  -2  61 SW8       30.11S
MILES CITY     FAIR      -5 -11  75 SE6       30.24F
BAKER          FAIR       4  -4  69 S16       30.25F WCI -15
LIVINGSTON     CLOUDY    21   7  54 SW26G37   29.99F

CENTRAL MONTANA


CITY           SKY/WX    TMP DP  RH WIND       PRES   REMARKS
HAVRE          FAIR      -4 -12  68 E6        30.14F
LEWISTOWN      FAIR      13   4  67 SW13      30.00F WCI  -2
GREAT FALLS    FAIR      12   1  61 SW16      30.01F WCI  -5
CUT BANK       FAIR       7  -3  64 SW12G17   29.95F WCI  -8
HELENA         FAIR       4  -5  66 CALM      30.11S
BUTTE          PTSUNNY    5  -3  69 VRB3      29.99S
BOZEMAN        FAIR       4  -5  66 E3        30.07F

WESTERN MONTANA


CITY           SKY/WX    TMP DP  RH WIND       PRES   REMARKS
MISSOULA       PTSUNNY   10   2  69 CALM      30.19F
KALISPELL      NOT AVBL

NORTH DAKOTA


CITY           SKY/WX    TMP DP  RH WIND       PRES   REMARKS
WILLISTON      FAIR       5  -5  63 SW6       30.34R
DICKINSON      FAIR      12  -3  51 SW6       30.28F
MINOT          FAIR      11   0  61 W9        30.36S
BISMARCK       FAIR      11  -4  51 SW6       30.44S

SOUTHERN SASKATCHEWAN


CITY           SKY/WX    TMP DP  RH WIND       PRES   REMARKS
REGINA         NOT AVBL
ESTEVAN        NOT AVBL
SWIFT CURRENT  NOT AVBL





USA.gov is the U.S. government's official web portal to all federal, state and local government web resources and services.